Location: B�di�
(14.6834°N, 3.1047°W)
Time: 04:16:55
(UTC+00:00)

FALCON 9 R/B - Pass Details

Date: 24 January 2020
Orbit: 286 x 10158 km, 34.5° (Epoch: 16 February)

Event Time Altitude Azimuth Distance (km) Brightness Sun altitude
Rises 20:02:55 0° 264° (W) 9,487 8.8 -27.6°
Reaches altitude 10° 20:13:44 10° 275° (W) 6,283 7.5 -30.2°
Maximum altitude 20:25:16 24° 322° (NW) 2,706 4.9 -32.9°
Enters shadow 20:27:37 21° 348° (NNW) 2,363 4.4 -33.4°
